TimeCEST,TemperatureF,Dew PointF,Humidity,Sea Level PressureIn,VisibilityMPH,Wind Direction,Wind SpeedMPH,Gust SpeedMPH,PrecipitationIn,Events,Conditions,WindDirDegrees,DateUTC
12:00 AM,66.2,55.4,68,30.04,-9999.0,NNW,6.9,-,N/A,,Clear,330,2013-08-18 22:00:00
12:30 AM,66.2,53.6,64,30.04,-9999.0,WNW,4.6,-,N/A,,Clear,300,2013-08-18 22:30:00
1:00 AM,64.4,53.6,68,30.04,-9999.0,Variable,2.3,-,N/A,,Clear,0,2013-08-18 23:00:00
1:30 AM,66.2,53.6,64,30.04,-9999.0,SSE,3.5,-,N/A,,Clear,150,2013-08-18 23:30:00
2:00 AM,65,54,60,30.02,16,South,4.5,,,,Mostly Cloudy,170,2013-08-19 00:00:00
2:00 AM,66.2,53.6,64,30.04,-9999.0,South,3.5,-,N/A,,Clear,180,2013-08-19 00:00:00
2:30 AM,64.4,55.4,73,30.04,-9999.0,South,4.6,-,N/A,,Clear,190,2013-08-19 00:30:00
3:00 AM,64.4,55.4,73,30.04,-9999.0,SSW,5.8,-,N/A,,Clear,200,2013-08-19 01:00:00
3:30 AM,64.4,55.4,73,30.04,-9999.0,South,8.1,-,N/A,,Clear,190,2013-08-19 01:30:00
4:00 AM,64.4,55.4,73,30.04,-9999.0,South,6.9,-,N/A,,Clear,190,2013-08-19 02:00:00
4:30 AM,64.4,55.4,73,30.04,6.2,South,8.1,-,N/A,Rain,Light Rain,190,2013-08-19 02:30:00
5:00 AM,64.4,55.4,73,30.04,-9999.0,SSW,6.9,-,N/A,,Clear,200,2013-08-19 03:00:00
5:30 AM,62.6,55.4,77,30.04,-9999.0,SSW,6.9,-,N/A,,Clear,210,2013-08-19 03:30:00
6:00 AM,62.6,55.4,77,30.04,-9999.0,South,4.6,-,N/A,,Clear,190,2013-08-19 04:00:00
6:30 AM,64.4,55.4,73,30.04,-9999.0,South,6.9,-,N/A,,Clear,190,2013-08-19 04:30:00
7:00 AM,64.4,55.4,73,30.04,-9999.0,South,4.6,-,N/A,,Clear,170,2013-08-19 05:00:00
7:30 AM,64.4,55.4,73,30.04,6.2,South,4.6,-,N/A,Rain,Light Rain,170,2013-08-19 05:30:00
8:00 AM,65,56,64,30.00,47,South,4.5,,,Rain,Light Rain,170,2013-08-19 06:00:00
8:00 AM,64.4,55.4,73,30.01,-9999.0,SSE,5.8,-,N/A,,Clear,160,2013-08-19 06:00:00
8:30 AM,66.2,55.4,68,30.04,-9999.0,South,4.6,-,N/A,,Clear,180,2013-08-19 06:30:00
8:45 AM,64.4,55.4,73,30.04,6.2,South,4.6,-,N/A,Rain,Light Rain Showers,180,2013-08-19 06:45:00
9:00 AM,64.4,59.0,83,30.01,-9999.0,South,5.8,-,N/A,,Clear,180,2013-08-19 07:00:00
9:30 AM,66.2,57.2,73,30.04,6.2,South,6.9,-,N/A,Rain,Light Rain,170,2013-08-19 07:30:00
10:00 AM,66.2,57.2,73,30.04,6.2,SSE,6.9,-,N/A,Rain,Light Rain,160,2013-08-19 08:00:00
10:30 AM,66.2,59.0,78,30.01,-9999.0,SSE,6.9,-,N/A,,Clear,150,2013-08-19 08:30:00
11:00 AM,68.0,57.2,68,30.04,-9999.0,SSE,8.1,-,N/A,,Clear,160,2013-08-19 09:00:00
11:30 AM,68.0,59.0,73,30.04,-9999.0,SSE,8.1,-,N/A,,Clear,160,2013-08-19 09:30:00
12:00 PM,68.0,59.0,73,30.01,-9999.0,SSE,8.1,-,N/A,,Clear,160,2013-08-19 10:00:00
12:30 PM,69.8,59.0,68,30.01,-9999.0,SSE,10.4,-,N/A,,Clear,160,2013-08-19 10:30:00
1:00 PM,71.6,59.0,64,30.01,-9999.0,SSE,12.7,-,N/A,,Clear,150,2013-08-19 11:00:00
1:30 PM,73.4,59.0,61,29.98,-9999.0,South,11.5,-,N/A,,Clear,170,2013-08-19 11:30:00
2:00 PM,72,58,51,29.95,25,South,8.9,,,,Partly Cloudy,170,2013-08-19 12:00:00
2:00 PM,71.6,57.2,60,29.98,-9999.0,South,10.4,-,N/A,,Clear,170,2013-08-19 12:00:00
2:16 PM,71.6,57.2,60,30.01,6.2,WSW,12.7,26.5,N/A,Rain,Light Rain Showers,240,2013-08-19 12:16:00
2:24 PM,64.4,59.0,83,30.04,6.2,West,25.3,-,N/A,Rain,Light Rain Showers,260,2013-08-19 12:24:00
2:30 PM,62.6,59.0,88,30.04,3.1,West,26.5,-,N/A,Rain,Rain Showers,260,2013-08-19 12:30:00
3:00 PM,62.6,59.0,88,30.04,4.3,WSW,9.2,-,N/A,Rain,Light Rain,250,2013-08-19 13:00:00
3:30 PM,62.6,60.8,94,30.04,5.0,SSW,5.8,-,N/A,Rain,Rain,200,2013-08-19 13:30:00
4:00 PM,62.6,60.8,94,30.04,6.2,SSW,5.8,-,N/A,Rain,Light Rain,200,2013-08-19 14:00:00
4:30 PM,62.6,60.8,94,30.04,6.2,South,4.6,-,N/A,Rain,Light Rain,190,2013-08-19 14:30:00
5:00 PM,62.6,60.8,94,30.01,6.2,SSE,4.6,-,N/A,Rain,Light Rain,150,2013-08-19 15:00:00
5:30 PM,62.6,60.8,94,30.01,6.2,SE,3.5,-,N/A,,Partly Cloudy,140,2013-08-19 15:30:00
5:36 PM,62.6,60.8,94,30.01,6.2,SE,3.5,-,N/A,Rain,Light Rain,140,2013-08-19 15:36:00
6:00 PM,62.6,60.8,94,30.01,6.2,SSE,4.6,-,N/A,,Partly Cloudy,150,2013-08-19 16:00:00
6:10 PM,62.6,60.8,94,30.04,6.2,SSE,5.8,-,N/A,,Partly Cloudy,150,2013-08-19 16:10:00
6:30 PM,62.6,60.8,94,30.04,6.2,South,4.6,-,N/A,,Partly Cloudy,170,2013-08-19 16:30:00
6:50 PM,62.6,59.0,88,30.04,6.2,South,5.8,-,N/A,Rain,Rain,190,2013-08-19 16:50:00
7:00 PM,62.6,60.8,94,30.04,4.3,SSW,6.9,-,N/A,Rain,Rain,210,2013-08-19 17:00:00
7:30 PM,60.8,59.0,94,30.04,5.6,Variable,2.3,-,N/A,Rain,Rain,0,2013-08-19 17:30:00
8:00 PM,60,59,95,30.01,9,East,6.7,,,Rain,Light Rain,90,2013-08-19 18:00:00
8:00 PM,60.8,59.0,94,30.01,6.2,East,4.6,-,N/A,Rain,Light Rain,80,2013-08-19 18:00:00
8:30 PM,60.8,59.0,94,30.04,6.2,SSE,4.6,-,N/A,,Partly Cloudy,150,2013-08-19 18:30:00
9:00 PM,60.8,59.0,94,30.04,6.2,South,5.8,-,N/A,,Partly Cloudy,180,2013-08-19 19:00:00
9:30 PM,60.8,59.0,94,30.06,6.2,West,9.2,-,N/A,,Mostly Cloudy,260,2013-08-19 19:30:00
10:00 PM,60.8,59.0,94,30.06,6.2,West,5.8,-,N/A,,Scattered Clouds,270,2013-08-19 20:00:00
10:30 PM,59.0,59.0,100,30.09,6.2,West,10.4,-,N/A,,Scattered Clouds,260,2013-08-19 20:30:00
11:00 PM,59.0,57.2,94,30.09,6.2,WSW,10.4,-,N/A,,Partly Cloudy,250,2013-08-19 21:00:00
11:30 PM,59.0,57.2,94,30.09,-9999.0,WSW,9.2,-,N/A,,Clear,250,2013-08-19 21:30:00